マセニー彗星

C/2016 T1 ( Matheny )

English version
Home page
Updated on May 20, 2017

---------------------------------------------------------------------

・ プロフィール

発見日 2016年10月6日
発見光度 18.4等
発見者 Rose G. Matheny (Mount Lemmon Survey)

・ 写真集

・ 軌道要素

Epoch 2017 Feb. 16.0 TT = JDT 2457800.5
T 2017 Feb. 1.65725 TT                                  MPCW
q   2.2999991            (2000.0)            P               Q
z  +0.0079402      Peri.  137.34934     -0.04817465     -0.76811684
 +/-0.0000227      Node    56.23059     -0.98921446     -0.05183581
e   0.9817375      Incl.  129.81775     +0.13832556     -0.63820809
From 113 observations 2016 Oct. 6-2017 May 19, mean residual 0".5.

・ 光度変化

        m1 = 11.5 + 5 logΔ + 15.0 log r(t + 80)

        ※ 灰色の曲線は、m1 = 12.5 + 5 logΔ + 10.0 log r の光度曲線です。

---------------------------------------------------------------------

軌道要素はM.P.E.C. 2017-K13に掲載されたものです。
光度グラフはComet for Windowsで作成したものです。

---------------------------------------------------------------------

Copyright(C) Seiichi Yoshida (comet@aerith.net). All rights reserved.